Location: Unspecified
(60.7170°N, 0.0000°E)
Time: 13:51:07
(UTC+00:00)

Cosmos 1275 Rocket - Visible Passes

Search period start: 04 April 2026 00:00
Search period end: 14 April 2026 00:00
Orbit: 780 x 793 km, 82.9° (Epoch: 28 March)

Date Brightness Start Highest point End Pass type
(mag) Time Alt. Az. Time Alt. Az. Time Alt. Az.
4 Apr 7.2 02:04:08 10° N 02:08:21 23° NE 02:12:31 10° ESE visible
4 Apr 5.0 03:45:13 10° NNW 03:50:35 79° ENE 03:55:57 10° SSE visible
4 Apr 7.9 20:21:35 10° WNW 20:24:14 14° NW 20:26:53 10° N visible
5 Apr 7.6 01:33:17 10° N 01:36:53 18° NE 01:40:27 10° E visible
5 Apr 5.5 03:14:11 10° N 03:19:28 57° ENE 03:24:43 10° SSE visible
5 Apr 7.7 19:49:12 10° W 19:52:40 17° NW 19:56:09 10° N visible
6 Apr 7.7 01:02:33 10° N 01:05:20 14° NE 01:08:08 10° ENE visible
6 Apr 6.1 02:43:10 10° N 02:48:15 42° ENE 02:53:18 10° SE visible
7 Apr 7.9 00:32:04 10° NNE 00:33:43 11° NNE 00:35:22 10° NE visible
7 Apr 6.6 02:12:11 10° N 02:16:57 31° ENE 02:21:41 10° ESE visible
7 Apr 4.8 03:53:28 10° NNW 03:58:48 70° W 04:04:05 10° S visible
7 Apr 8.2 20:32:15 10° NW 20:33:07 10° NNW 20:34:00 10° NNW visible
8 Apr 7.1 01:41:14 10° N 01:45:34 24° NE 01:49:52 10° ESE visible
8 Apr 4.9 03:22:21 10° NNW 03:27:44 85° ENE 03:33:04 10° SSE visible
8 Apr 7.9 19:59:03 10° WNW 20:01:27 13° NW 20:03:52 10° N visible
9 Apr 7.4 01:10:20 10° N 01:14:04 19° NE 01:17:48 10° E visible
9 Apr 5.3 02:51:16 10° N 02:56:35 62° ENE 03:01:51 10° SSE visible
10 Apr 7.6 00:39:31 10° N 00:42:31 15° NE 00:45:31 10° ENE visible
10 Apr 5.9 02:20:13 10° N 02:25:21 45° ENE 02:30:27 10° SE visible
10 Apr 5.1 04:01:42 10° NNW 04:06:48 46° W 04:11:51 10° SSW visible
11 Apr 7.7 00:08:54 10° NNE 00:10:53 12° NE 00:12:50 10° ENE visible
11 Apr 6.4 01:49:11 10° N 01:54:02 33° ENE 01:58:51 10° SE visible
11 Apr 4.8 03:30:30 10° NNW 03:35:48 65° W 03:41:04 10° S visible
12 Apr 6.9 01:18:12 10° N 01:22:37 26° NE 01:27:02 10° ESE visible
12 Apr 4.8 02:59:21 10° NNW 03:04:44 89° WSW 03:10:03 10° S visible
13 Apr 7.2 00:47:15 10° N 00:51:09 20° NE 00:55:01 10° E visible
13 Apr 5.2 02:28:13 10° N 02:33:34 66° ENE 02:38:51 10° SSE visible
